Time,TemperatureF,DewpointF,PressureIn,WindDirection,WindDirectionDegrees,WindSpeedMPH,WindSpeedGustMPH,Humidity,HourlyPrecipIn,Conditions,Clouds,dailyrainin,SoftwareType,DateUTC
2013-06-20 00:05:00,66.0,58.0,30.00,West,275,1.0,2.0,74,0.00,,,0.00,weatherlink.com 1.10,2013-06-19 22:05:00,
2013-06-20 00:20:00,66.2,58.0,29.99,WNW,288,1.0,2.0,74,0.00,,,0.00,weatherlink.com 1.10,2013-06-19 22:20:00,
2013-06-20 00:35:00,66.0,58.0,29.99,SW,232,1.0,2.0,74,0.00,,,0.00,weatherlink.com 1.10,2013-06-19 22:35:00,
2013-06-20 00:50:00,65.7,58.0,29.99,SW,218,0.0,3.0,75,0.00,,,0.00,weatherlink.com 1.10,2013-06-19 22:50:00,
2013-06-20 01:05:00,65.4,57.0,30.00,SSW,213,1.0,2.0,75,0.00,,,0.00,weatherlink.com 1.10,2013-06-19 23:05:00,
2013-06-20 01:20:00,64.7,57.0,29.99,SSW,197,0.0,2.0,76,0.00,,,0.00,weatherlink.com 1.10,2013-06-19 23:20:00,
2013-06-20 01:35:00,64.4,57.0,30.00,SSW,193,1.0,3.0,77,0.00,,,0.00,weatherlink.com 1.10,2013-06-19 23:35:00,
2013-06-20 01:50:00,64.0,57.0,29.99,SW,221,1.0,3.0,78,0.00,,,0.00,weatherlink.com 1.10,2013-06-19 23:50:00,
2013-06-20 02:06:00,63.8,57.0,29.99,SSE,150,0.0,1.0,79,0.00,,,0.00,weatherlink.com 1.10,2013-06-20 00:06:00,
2013-06-20 02:21:00,63.5,57.0,29.99,SSW,205,0.0,1.0,80,0.00,,,0.00,weatherlink.com 1.10,2013-06-20 00:21:00,
2013-06-20 02:36:00,63.7,57.0,29.99,SW,222,0.0,1.0,80,0.00,,,0.00,weatherlink.com 1.10,2013-06-20 00:36:00,
2013-06-20 02:51:00,63.2,57.0,29.98,ENE,71,0.0,1.0,80,0.00,,,0.00,weatherlink.com 1.10,2013-06-20 00:51:00,
2013-06-20 03:06:00,63.5,58.0,29.98,ENE,70,0.0,1.0,81,0.00,,,0.00,weatherlink.com 1.10,2013-06-20 01:06:00,
2013-06-20 03:36:00,63.4,57.0,29.98,NNW,338,1.0,1.0,80,0.00,,,0.00,weatherlink.com 1.10,2013-06-20 01:36:00,
2013-06-20 03:51:00,63.1,57.0,29.98,NNW,345,0.0,1.0,81,0.00,,,0.00,weatherlink.com 1.10,2013-06-20 01:51:00,
2013-06-20 04:06:00,63.2,57.0,29.98,East,83,1.0,1.0,80,0.00,,,0.00,weatherlink.com 1.10,2013-06-20 02:06:00,
2013-06-20 04:21:00,63.4,57.0,29.98,East,82,0.0,1.0,80,0.00,,,0.00,weatherlink.com 1.10,2013-06-20 02:21:00,
2013-06-20 04:36:00,63.4,57.0,29.98,East,81,0.0,0.0,80,0.00,,,0.00,weatherlink.com 1.10,2013-06-20 02:36:00,
2013-06-20 04:51:00,63.4,57.0,29.98,ENE,70,0.0,1.0,79,0.00,,,0.00,weatherlink.com 1.10,2013-06-20 02:51:00,
2013-06-20 05:06:00,63.0,57.0,29.98,ENE,71,0.0,1.0,80,0.00,,,0.00,weatherlink.com 1.10,2013-06-20 03:06:00,
2013-06-20 05:21:00,63.3,56.0,29.98,NE,53,1.0,1.0,78,0.00,,,0.00,weatherlink.com 1.10,2013-06-20 03:21:00,
2013-06-20 05:36:00,62.9,57.0,29.99,ESE,118,0.0,2.0,81,0.00,,,0.00,weatherlink.com 1.10,2013-06-20 03:36:00,
2013-06-20 05:51:00,62.4,56.0,29.99,ENE,67,1.0,3.0,80,0.00,,,0.00,weatherlink.com 1.10,2013-06-20 03:51:00,
2013-06-20 06:06:00,62.0,55.0,29.99,East,95,2.0,2.0,77,0.00,,,0.00,weatherlink.com 1.10,2013-06-20 04:06:00,
2013-06-20 06:21:00,62.7,56.0,29.99,ENE,77,1.0,3.0,79,0.00,,,0.00,weatherlink.com 1.10,2013-06-20 04:21:00,
2013-06-20 06:36:00,63.0,57.0,29.99,East,86,1.0,2.0,82,0.00,,,0.00,weatherlink.com 1.10,2013-06-20 04:36:00,
2013-06-20 06:51:00,63.2,58.0,29.99,East,86,2.0,2.0,84,0.00,,,0.00,weatherlink.com 1.10,2013-06-20 04:51:00,
2013-06-20 07:06:00,64.3,60.0,30.00,ENE,77,1.0,1.0,85,0.00,,,0.00,weatherlink.com 1.10,2013-06-20 05:06:00,
2013-06-20 07:21:00,65.7,60.0,29.99,East,82,0.0,1.0,83,0.00,,,0.00,weatherlink.com 1.10,2013-06-20 05:21:00,
2013-06-20 07:36:00,67.6,61.0,30.00,SSE,155,2.0,3.0,79,0.00,,,0.00,weatherlink.com 1.10,2013-06-20 05:36:00,
2013-06-20 07:51:00,66.9,59.0,30.00,East,92,0.0,2.0,77,0.00,,,0.00,weatherlink.com 1.10,2013-06-20 05:51:00,
2013-06-20 08:06:00,68.9,62.0,30.00,SE,144,0.0,2.0,79,0.00,,,0.00,weatherlink.com 1.10,2013-06-20 06:06:00,
2013-06-20 08:21:00,69.4,61.0,30.01,NW,311,2.0,2.0,75,0.00,,,0.00,weatherlink.com 1.10,2013-06-20 06:21:00,
2013-06-20 08:36:00,68.0,61.0,30.01,WNW,297,1.0,5.0,77,0.00,,,0.00,weatherlink.com 1.10,2013-06-20 06:36:00,
2013-06-20 08:51:00,68.2,61.0,30.01,West,280,1.0,4.0,77,0.00,,,0.00,weatherlink.com 1.10,2013-06-20 06:51:00,
2013-06-20 09:06:00,69.0,61.0,30.02,West,273,4.0,6.0,75,0.00,,,0.00,weatherlink.com 1.10,2013-06-20 07:06:00,
2013-06-20 09:21:00,69.6,61.0,30.02,SSW,208,3.0,8.0,74,0.00,,,0.00,weatherlink.com 1.10,2013-06-20 07:21:00,
2013-06-20 09:36:00,70.1,60.0,30.02,WSW,254,6.0,11.0,71,0.00,,,0.00,weatherlink.com 1.10,2013-06-20 07:36:00,
2013-06-20 09:51:00,70.9,61.0,30.02,South,184,7.0,9.0,70,0.00,,,0.00,weatherlink.com 1.10,2013-06-20 07:51:00,
2013-06-20 10:06:00,70.7,60.0,30.02,SSW,200,4.0,9.0,70,0.00,,,0.00,weatherlink.com 1.10,2013-06-20 08:06:00,
2013-06-20 10:21:00,71.2,61.0,30.02,SE,138,4.0,9.0,71,0.00,,,0.00,weatherlink.com 1.10,2013-06-20 08:21:00,
2013-06-20 10:36:00,71.1,60.0,30.02,WSW,242,7.0,12.0,69,0.00,,,0.00,weatherlink.com 1.10,2013-06-20 08:36:00,
2013-06-20 10:51:00,71.5,61.0,30.02,SE,133,8.0,11.0,69,0.00,,,0.00,weatherlink.com 1.10,2013-06-20 08:51:00,
2013-06-20 11:06:00,72.6,61.0,30.03,SSW,211,7.0,15.0,68,0.00,,,0.00,weatherlink.com 1.10,2013-06-20 09:06:00,
2013-06-20 11:21:00,72.5,62.0,30.03,SW,236,8.0,13.0,69,0.00,,,0.00,weatherlink.com 1.10,2013-06-20 09:21:00,
2013-06-20 11:37:00,72.9,62.0,30.03,SSW,205,4.0,14.0,68,0.00,,,0.00,weatherlink.com 1.10,2013-06-20 09:37:00,
2013-06-20 11:52:00,73.0,62.0,30.03,SW,226,5.0,12.0,68,0.00,,,0.00,weatherlink.com 1.10,2013-06-20 09:52:00,
2013-06-20 12:07:00,73.8,62.0,30.03,SW,224,3.0,11.0,66,0.00,,,0.00,weatherlink.com 1.10,2013-06-20 10:07:00,
2013-06-20 12:22:00,73.6,62.0,30.03,South,177,7.0,12.0,67,0.00,,,0.00,weatherlink.com 1.10,2013-06-20 10:22:00,
2013-06-20 12:37:00,74.5,62.0,30.03,South,174,8.0,13.0,65,0.00,,,0.00,weatherlink.com 1.10,2013-06-20 10:37:00,
2013-06-20 12:52:00,74.0,62.0,30.02,SSW,200,9.0,13.0,67,0.00,,,0.00,weatherlink.com 1.10,2013-06-20 10:52:00,
2013-06-20 13:07:00,74.6,62.0,30.03,SSW,195,8.0,13.0,65,0.00,,,0.00,weatherlink.com 1.10,2013-06-20 11:07:00,
2013-06-20 13:22:00,74.4,63.0,30.03,SSW,207,7.0,13.0,67,0.00,,,0.00,weatherlink.com 1.10,2013-06-20 11:22:00,
2013-06-20 13:37:00,74.6,61.0,30.03,SW,226,10.0,13.0,63,0.00,,,0.00,weatherlink.com 1.10,2013-06-20 11:37:00,
2013-06-20 13:52:00,75.2,63.0,30.03,South,191,5.0,14.0,65,0.00,,,0.00,weatherlink.com 1.10,2013-06-20 11:52:00,
2013-06-20 14:07:00,74.9,63.0,30.03,South,177,4.0,17.0,66,0.00,,,0.00,weatherlink.com 1.10,2013-06-20 12:07:00,
2013-06-20 14:22:00,75.7,63.0,30.02,SSW,193,11.0,14.0,64,0.00,,,0.00,weatherlink.com 1.10,2013-06-20 12:22:00,
2013-06-20 14:37:00,75.1,62.0,30.02,SSW,207,8.0,15.0,65,0.00,,,0.00,weatherlink.com 1.10,2013-06-20 12:37:00,
2013-06-20 14:52:00,75.4,62.0,30.02,South,173,9.0,15.0,64,0.00,,,0.00,weatherlink.com 1.10,2013-06-20 12:52:00,
2013-06-20 15:07:00,75.7,60.0,30.02,South,184,11.0,17.0,59,0.00,,,0.00,weatherlink.com 1.10,2013-06-20 13:07:00,
2013-06-20 15:22:00,76.1,61.0,30.02,SSW,193,8.0,17.0,59,0.00,,,0.00,weatherlink.com 1.10,2013-06-20 13:22:00,
2013-06-20 15:37:00,75.7,61.0,30.02,SSW,197,4.0,14.0,61,0.00,,,0.00,weatherlink.com 1.10,2013-06-20 13:37:00,
2013-06-20 15:52:00,77.0,62.0,30.02,SW,226,10.0,13.0,60,0.00,,,0.00,weatherlink.com 1.10,2013-06-20 13:52:00,
2013-06-20 16:07:00,76.3,62.0,30.02,SSW,200,5.0,16.0,62,0.00,,,0.00,weatherlink.com 1.10,2013-06-20 14:07:00,
2013-06-20 16:22:00,76.3,63.0,30.02,South,169,8.0,13.0,64,0.00,,,0.00,weatherlink.com 1.10,2013-06-20 14:22:00,
2013-06-20 16:37:00,75.9,63.0,30.02,SSE,168,6.0,13.0,65,0.00,,,0.00,weatherlink.com 1.10,2013-06-20 14:37:00,
2013-06-20 16:52:00,75.7,63.0,30.02,SW,226,3.0,12.0,64,0.00,,,0.00,weatherlink.com 1.10,2013-06-20 14:52:00,
2013-06-20 17:07:00,75.9,63.0,30.02,SSE,154,3.0,10.0,65,0.00,,,0.00,weatherlink.com 1.10,2013-06-20 15:07:00,
2013-06-20 17:22:00,76.4,63.0,30.02,SSW,193,5.0,10.0,63,0.00,,,0.00,weatherlink.com 1.10,2013-06-20 15:22:00,
2013-06-20 17:37:00,76.0,63.0,30.02,SW,226,5.0,10.0,65,0.00,,,0.00,weatherlink.com 1.10,2013-06-20 15:37:00,
2013-06-20 17:52:00,76.4,63.0,30.02,South,172,2.0,11.0,64,0.00,,,0.00,weatherlink.com 1.10,2013-06-20 15:52:00,
2013-06-20 18:08:00,77.2,63.0,30.02,SSE,166,5.0,9.0,62,0.00,,,0.00,weatherlink.com 1.10,2013-06-20 16:08:00,
2013-06-20 18:22:00,76.6,63.0,30.02,SW,229,5.0,12.0,64,0.00,,,0.00,weatherlink.com 1.10,2013-06-20 16:22:00,
2013-06-20 18:37:00,76.8,63.0,30.02,South,176,1.0,9.0,63,0.00,,,0.00,weatherlink.com 1.10,2013-06-20 16:37:00,
2013-06-20 18:52:00,77.1,63.0,30.02,SSE,148,4.0,7.0,62,0.00,,,0.00,weatherlink.com 1.10,2013-06-20 16:52:00,
2013-06-20 19:07:00,76.2,63.0,30.02,SSW,199,7.0,11.0,64,0.00,,,0.00,weatherlink.com 1.10,2013-06-20 17:07:00,
2013-06-20 19:22:00,75.5,64.0,30.02,SSW,198,5.0,9.0,67,0.00,,,0.00,weatherlink.com 1.10,2013-06-20 17:22:00,
2013-06-20 19:37:00,74.9,64.0,30.02,SW,228,5.0,10.0,68,0.00,,,0.00,weatherlink.com 1.10,2013-06-20 17:37:00,
2013-06-20 19:52:00,73.9,64.0,30.03,South,188,7.0,9.0,70,0.00,,,0.00,weatherlink.com 1.10,2013-06-20 17:52:00,
2013-06-20 20:07:00,73.6,63.0,30.03,SSE,161,2.0,8.0,70,0.00,,,0.00,weatherlink.com 1.10,2013-06-20 18:07:00,
2013-06-20 20:22:00,72.9,63.0,30.04,SSE,155,6.0,8.0,72,0.00,,,0.00,weatherlink.com 1.10,2013-06-20 18:22:00,
2013-06-20 20:37:00,72.3,64.0,30.04,South,181,3.0,7.0,74,0.00,,,0.00,weatherlink.com 1.10,2013-06-20 18:37:00,
2013-06-20 20:52:00,71.4,63.0,30.04,South,183,2.0,8.0,75,0.00,,,0.00,weatherlink.com 1.10,2013-06-20 18:52:00,
2013-06-20 21:07:00,70.8,63.0,30.04,SSW,207,1.0,4.0,76,0.00,,,0.00,weatherlink.com 1.10,2013-06-20 19:07:00,
2013-06-20 21:22:00,70.2,63.0,30.04,SSE,149,0.0,3.0,77,0.00,,,0.00,weatherlink.com 1.10,2013-06-20 19:22:00,
2013-06-20 21:37:00,69.8,63.0,30.05,SSE,148,2.0,3.0,79,0.00,,,0.00,weatherlink.com 1.10,2013-06-20 19:37:00,
2013-06-20 21:52:00,69.0,63.0,30.05,ESE,109,2.0,5.0,82,0.00,,,0.00,weatherlink.com 1.10,2013-06-20 19:52:00,
2013-06-20 22:07:00,68.6,63.0,30.06,SE,124,2.0,5.0,83,0.00,,,0.00,weatherlink.com 1.10,2013-06-20 20:07:00,
2013-06-20 22:22:00,68.3,63.0,30.07,SE,138,3.0,5.0,84,0.00,,,0.00,weatherlink.com 1.10,2013-06-20 20:22:00,
2013-06-20 22:37:00,68.0,63.0,30.07,SE,144,3.0,5.0,85,0.00,,,0.00,weatherlink.com 1.10,2013-06-20 20:37:00,
2013-06-20 22:52:00,67.8,64.0,30.08,SE,142,2.0,4.0,86,0.00,,,0.00,weatherlink.com 1.10,2013-06-20 20:52:00,
2013-06-20 23:07:00,67.6,64.0,30.08,SSW,208,0.0,3.0,87,0.00,,,0.00,weatherlink.com 1.10,2013-06-20 21:07:00,
2013-06-20 23:22:00,67.4,64.0,30.09,SSE,151,0.0,2.0,88,0.00,,,0.00,weatherlink.com 1.10,2013-06-20 21:22:00,
2013-06-20 23:37:00,67.4,64.0,30.08,West,277,0.0,1.0,88,0.00,,,0.00,weatherlink.com 1.10,2013-06-20 21:37:00,
2013-06-20 23:52:00,67.0,63.0,30.08,NW,316,0.0,2.0,88,0.00,,,0.00,weatherlink.com 1.10,2013-06-20 21:52:00,